Date String (YYYY-MM-DD hh:mm:ss) UTC,Instrument flags,absolute air pressure of the measurement (hPa),sample flow rate (lpm),inlet stack bypass flow (lpm),air temperature of the measurement (°C),ambient temperature measured by the external sensor (°C),aerosol sample conditioner tube jacket temperature (°C),OPC LED temperature (°C),internal box temperature (°C),relative humidity of the measurement (%),span deviation,mass concentration of particles derived from Lorenz-Mie calculation of OPC scattering (μg/m³),mass concentration of particles derived from Lorenz-Mie calculation of OPC scattering (μg/m³),mass concentration of particles derived from Lorenz-Mie calculation of OPC scattering (μg/m³)
DateTimeUTC,F1_M11,P_M11,Q1_M11,Q2_M11,T1_M11,T2_M11,T3_M11,T4_M11,T5_M11,U1_M11,ZSPAN_M11,X2_M11,X0_M11,X1_M11
2024-04-04 22:00:00,SystemResetWarning,0823.4,5.00,000.00,025.5,025.1,000.0,033.6,027.4,008.4,0000.0,0002.50,0007.45,0001.86
2024-04-04 22:01:00,SystemResetWarning,0823.4,4.99,000.00,025.5,025.2,000.0,033.6,027.5,008.5,0000.0,0002.55,0007.62,0001.86
2024-04-04 22:02:00,SystemResetWarning,0823.4,5.00,000.00,025.6,025.3,000.0,033.7,027.5,008.3,0000.0,0002.56,0008.19,0001.85
2024-04-04 22:03:00,SystemResetWarning,0823.4,4.99,000.00,025.6,024.9,000.0,033.7,027.2,008.8,0000.0,0002.56,0009.34,0001.83
2024-04-04 22:04:00,SystemResetWarning,0823.3,5.00,000.00,025.3,022.9,000.0,033.8,026.1,009.0,0000.0,0002.51,0010.68,0001.82
2024-04-04 22:05:00,SystemResetWarning,0823.2,5.01,000.00,024.8,021.6,000.0,033.8,025.3,008.6,0000.0,0002.53,0011.29,0001.81
2024-04-04 22:06:00,SystemResetWarning,0823.2,5.00,000.00,024.7,021.9,000.0,033.7,025.5,008.9,0000.0,0002.52,0012.20,0001.80
2024-04-04 22:07:00,SystemResetWarning,0823.3,5.00,000.00,024.6,022.3,000.0,033.5,025.8,009.0,0000.0,0002.51,0012.35,0001.79
2024-04-04 22:08:00,SystemResetWarning,0823.3,5.00,000.00,024.6,022.7,000.0,033.4,026.1,008.5,0000.0,0002.55,0012.30,0001.79
2024-04-04 22:09:00,SystemResetWarning,0823.2,5.00,000.00,024.7,023.1,000.0,033.4,026.3,008.6,0000.0,0002.55,0012.20,0001.80
2024-04-04 22:10:00,SystemResetWarning,0823.2,5.00,000.00,024.7,023.4,000.0,033.3,026.4,008.6,0000.0,0002.54,0012.39,0001.81
2024-04-04 22:11:00,SystemResetWarning,0823.2,5.00,000.00,024.8,023.7,000.0,033.3,026.5,008.6,0000.0,0002.55,0012.85,0001.82
2024-04-04 22:12:00,SystemResetWarning,0823.2,5.00,000.00,024.8,023.9,000.0,033.3,026.6,008.9,0000.0,0002.52,0012.94,0001.83
2024-04-04 22:13:00,SystemResetWarning,0823.1,5.00,000.00,024.9,024.1,000.0,033.3,026.7,008.7,0000.0,0002.52,0012.47,0001.85
2024-04-04 22:14:00,SystemResetWarning,0823.1,5.01,000.00,025.0,024.3,000.0,033.3,026.8,009.1,0000.0,0002.55,0011.13,0001.86
2024-04-04 22:15:00,SystemResetWarning,0823.1,5.00,000.00,025.0,024.5,000.0,033.3,026.9,008.2,0000.0,0002.60,0009.88,0001.87
2024-04-04 22:16:00,SystemResetWarning,0823.2,5.01,000.00,025.1,024.6,000.0,033.3,027.0,008.2,0000.0,0002.63,0009.03,0001.87
2024-04-04 22:17:00,SystemResetWarning,0823.1,4.99,000.00,025.2,024.7,000.0,033.3,027.1,008.3,0000.0,0002.61,0007.90,0001.87
2024-04-04 22:18:00,SystemResetWarning,0823.1,4.99,000.00,025.2,024.8,000.0,033.4,027.1,008.3,0000.0,0002.58,0007.67,0001.86
2024-04-04 22:19:00,SystemResetWarning,0823.2,5.00,000.00,025.3,024.9,000.0,033.4,027.2,008.3,0000.0,0002.48,0007.88,0001.85
2024-04-04 22:20:00,SystemResetWarning,0823.1,5.01,000.00,025.3,025.0,000.0,033.4,027.3,008.5,0000.0,0002.46,0007.42,0001.84
2024-04-04 22:21:00,SystemResetWarning,0823.1,5.00,000.00,025.4,025.1,000.0,033.5,027.3,008.2,0000.0,0002.47,0006.78,0001.82
2024-04-04 22:22:00,SystemResetWarning,0823.1,5.00,000.00,025.5,025.1,000.0,033.5,027.4,008.1,0000.0,0002.44,0005.57,0001.81
2024-04-04 22:23:00,SystemResetWarning,0823.1,5.00,000.00,025.5,025.2,000.0,033.6,027.4,008.2,0000.0,0002.40,0006.07,0001.79
2024-04-04 22:24:00,SystemResetWarning,0823.1,5.00,000.00,025.6,025.2,000.0,033.6,027.4,008.2,0000.0,0002.39,0006.13,0001.77
2024-04-04 22:25:00,SystemResetWarning,0823.0,5.00,000.00,025.4,023.5,000.0,033.7,026.5,008.1,0000.0,0002.33,0006.31,0001.75
2024-04-04 22:26:00,SystemResetWarning,0823.0,5.01,000.00,024.9,021.5,000.0,033.7,025.4,008.2,0000.0,0002.29,0007.19,0001.74
2024-04-04 22:27:00,SystemResetWarning,0823.0,5.01,000.00,024.6,021.6,000.0,033.6,025.3,008.8,0000.0,0002.27,0007.28,0001.74
2024-04-04 22:28:00,SystemResetWarning,0823.0,5.00,000.00,024.6,022.0,000.0,033.5,025.6,009.4,0000.0,0002.24,0007.72,0001.72
2024-04-04 22:29:00,SystemResetWarning,0823.0,5.00,000.00,024.6,022.5,000.0,033.4,025.9,009.0,0000.0,0002.26,0008.23,0001.73
2024-04-04 22:30:00,SystemResetWarning,0823.0,5.00,000.00,024.6,022.9,000.0,033.3,026.1,008.6,0000.0,0002.28,0007.95,0001.72
2024-04-04 22:31:00,SystemResetWarning,0823.0,5.00,000.00,024.6,023.3,000.0,033.2,026.3,008.7,0000.0,0002.26,0008.30,0001.72
2024-04-04 22:32:00,SystemResetWarning,0823.0,5.00,000.00,024.7,023.6,000.0,033.2,026.4,008.4,0000.0,0002.20,0008.88,0001.72
2024-04-04 22:33:00,SystemResetWarning,0823.0,5.00,000.00,024.7,023.8,000.0,033.2,026.5,008.4,0000.0,0002.20,0009.05,0001.73
2024-04-04 22:34:00,SystemResetWarning,0823.0,4.99,000.00,024.8,024.1,000.0,033.2,026.6,008.4,0000.0,0002.25,0009.17,0001.73
2024-04-04 22:35:00,SystemResetWarning,0823.0,5.00,000.00,024.9,024.3,000.0,033.2,026.7,008.7,0000.0,0002.24,0008.99,0001.72
2024-04-04 22:36:00,SystemResetWarning,0823.0,5.00,000.00,025.0,024.4,000.0,033.2,026.8,008.9,0000.0,0002.24,0010.04,0001.73
2024-04-04 22:37:00,SystemResetWarning,0822.9,5.02,000.00,025.0,024.6,000.0,033.3,026.9,009.0,0000.0,0002.23,0010.38,0001.73
2024-04-04 22:38:00,SystemResetWarning,0823.0,5.00,000.00,025.1,024.7,000.0,033.3,027.0,008.9,0000.0,0002.25,0010.72,0001.73
2024-04-04 22:39:00,SystemResetWarning,0822.9,5.00,000.00,025.2,024.8,000.0,033.3,027.1,008.5,0000.0,0002.27,0010.49,0001.72
2024-04-04 22:40:00,SystemResetWarning,0822.9,5.00,000.00,025.2,024.9,000.0,033.4,027.2,008.5,0000.0,0002.26,0009.88,0001.72
2024-04-04 22:41:00,SystemResetWarning,0823.1,4.99,000.00,025.3,025.0,000.0,033.4,027.2,008.2,0000.0,0002.27,0010.19,0001.72
2024-04-04 22:42:00,SystemResetWarning,0822.9,5.00,000.00,025.4,025.1,000.0,033.4,027.3,008.2,0000.0,0002.29,0009.48,0001.71
2024-04-04 22:43:00,SystemResetWarning,0823.0,5.01,000.00,025.4,025.1,000.0,033.5,027.4,008.4,0000.0,0002.32,0009.18,0001.70
2024-04-04 22:44:00,SystemResetWarning,0823.1,5.00,000.00,025.5,024.9,000.0,033.5,027.2,008.7,0000.0,0002.31,0009.81,0001.70
2024-04-04 22:45:00,SystemResetWarning,0822.8,4.99,000.00,025.2,022.8,000.0,033.6,026.1,008.8,0000.0,0002.28,0009.52,0001.70
2024-04-04 22:46:00,SystemResetWarning,0823.1,5.01,000.00,024.8,021.5,000.0,033.6,025.3,008.9,0000.0,0002.27,0009.38,0001.71
2024-04-04 22:47:00,SystemResetWarning,0823.1,5.01,000.00,024.6,021.8,000.0,033.5,025.4,008.8,0000.0,0002.27,0008.62,0001.70
2024-04-04 22:48:00,SystemResetWarning,0822.9,4.99,000.00,024.5,022.2,000.0,033.4,025.7,009.1,0000.0,0002.33,0007.68,0001.71
2024-04-04 22:49:00,SystemResetWarning,0822.9,5.00,000.00,024.6,022.6,000.0,033.3,026.0,009.1,0000.0,0002.29,0007.87,0001.70
2024-04-04 22:50:00,SystemResetWarning,0822.8,5.01,000.00,024.6,023.0,000.0,033.2,026.2,009.4,0000.0,0002.31,0007.69,0001.70
2024-04-04 22:51:00,SystemResetWarning,0822.9,5.01,000.00,024.6,023.4,000.0,033.2,026.4,009.6,0000.0,0002.38,0007.85,0001.71
2024-04-04 22:52:00,SystemResetWarning,0822.9,5.00,000.00,024.7,023.7,000.0,033.2,026.5,008.9,0000.0,0002.36,0007.66,0001.71
2024-04-04 22:53:00,SystemResetWarning,0822.9,5.00,000.00,024.8,024.0,000.0,033.2,026.6,008.8,0000.0,0002.35,0007.58,0001.71
2024-04-04 22:54:00,SystemResetWarning,0823.0,4.99,000.00,024.8,024.1,000.0,033.2,026.7,009.0,0000.0,0002.37,0007.54,0001.72
2024-04-04 22:55:00,SystemResetWarning,0822.9,5.00,000.00,024.9,024.3,000.0,033.2,026.8,008.9,0000.0,0002.41,0006.36,0001.72
2024-04-04 22:56:00,SystemResetWarning,0823.0,5.01,000.00,025.0,024.5,000.0,033.2,026.9,008.8,0000.0,0002.39,0005.76,0001.71
2024-04-04 22:57:00,SystemResetWarning,0822.8,5.01,000.00,025.1,024.6,000.0,033.2,027.0,008.8,0000.0,0002.40,0006.13,0001.70
2024-04-04 22:58:00,SystemResetWarning,0822.8,4.99,000.00,025.1,024.7,000.0,033.3,027.1,009.3,0000.0,0002.42,0006.33,0001.70
2024-04-04 22:59:00,SystemResetWarning,0823.0,4.99,000.00,025.2,024.8,000.0,033.3,027.1,009.3,0000.0,0002.41,0007.20,0001.69
